EW0259 Weather Reports


time (UTC)temp
C
wind
direction
speed
KPH
gust
KPH
rain 1hr
cm
rain 24hr
cm
rain mn
cm
humidity
%
barometer
mb
20260904195733 18 346 3.2 16.1 0.00 0.43 0.08 67 1014.9
20260904195221 18 227 4.8 11.3 0.00 0.43 0.08 66 1014.8
20260904194727 18 252 1.6 6.4 0.00 0.43 0.08 67 1014.8
20260904194234 18 254 3.2 6.4 0.00 0.43 0.08 64 1014.9
20260904193720 18 65 1.6 6.4 0.00 0.43 0.08 66 1015.0
20260904193308 18 22 3.2 8.0 0.00 0.43 0.08 66 1014.8
20260904192723 18 35 3.2 8.0 0.00 0.43 0.08 67 1014.9
20260904192231 18 34 1.6 4.8 0.00 0.43 0.08 69 1014.8
20260904191758 17 336 1.6 9.7 0.00 0.43 0.08 69 1014.9
20260904191237 17 311 1.6 9.7 0.00 0.43 0.08 71 1014.9
20260904190722 17 331 1.6 4.8 0.00 0.43 0.08 71 1014.9
20260904190228 17 317 0.0 6.4 0.00 0.43 0.08 74 1015.1
20260904185735 17 247 4.8 6.4 0.00 0.43 0.08 73 1015.1
20260904185223 17 264 1.6 6.4 0.00 0.43 0.08 72 1014.9
20260904184809 17 244 3.2 6.4 0.00 0.43 0.08 73 1015.0
20260904184224 17 252 3.2 6.4 0.00 0.43 0.08 74 1014.9
20260904183731 17 202 1.6 6.4 0.00 0.43 0.08 75 1014.8
20260904183238 17 271 1.6 4.8 0.00 0.43 0.08 74 1014.8
20260904182724 16 121 1.6 4.8 0.00 0.43 0.08 77 1014.8
20260904182312 16 295 3.2 4.8 0.00 0.43 0.08 76 1014.8
20260904181726 16 223 3.2 4.8 0.00 0.43 0.08 79 1014.8
20260904181237 16 268 1.6 4.8 0.00 0.43 0.08 77 1014.9
20260904180739 16 283 3.2 4.8 0.00 0.43 0.08 78 1014.8
20260904180226 16 256 0.0 4.8 0.00 0.43 0.08 79 1014.8
20260904175754 16 258 3.2 6.4 0.00 0.43 0.08 80 1014.8
20260904175230 16 282 3.2 6.4 0.00 0.43 0.08 80 1014.8
20260904174736 16 248 1.6 6.4 0.03 0.43 0.08 82 1014.7
20260904174223 15 163 0.0 3.2 0.03 0.43 0.08 82 1014.8
20260904173729 15 131 1.6 3.2 0.03 0.43 0.08 83 1014.9
20260904173236 15 173 0.0 4.8 0.03 0.43 0.08 85 1014.9
20260904172803 15 270 3.2 4.8 0.03 0.43 0.08 83 1014.9
20260904172732 15 270 3.2 4.8 0.03 0.43 0.08 83 1014.9
20260904172239 15 252 3.2 4.8 0.03 0.43 0.08 84 1015.0
20260904171725 15 94 1.6 3.2 0.03 0.43 0.08 87 1014.9
20260904171236 14 78 1.6 3.2 0.03 0.43 0.08 87 1014.9
20260904170723 14 100 0.0 1.6 0.03 0.43 0.08 87 1014.8
20260904170230 14 42 0.0 0.0 0.03 0.43 0.08 88 1014.8
20260904165737 13 42 0.0 0.0 0.03 0.43 0.08 88 1014.8
20260904165225 13 106 0.0 0.0 0.00 0.41 0.05 89 1014.8
20260904164733 13 106 0.0 0.0 0.00 0.41 0.05 89 1014.7
20260904164238 13 106 0.0 0.0 0.00 0.41 0.05 89 1014.7
20260904163725 13 106 0.0 0.0 0.00 0.41 0.05 89 1014.6
20260904163232 13 106 0.0 0.0 0.00 0.41 0.05 90 1014.6
20260904162800 13 106 0.0 0.0 0.00 0.41 0.05 90 1014.7
20260904162257 13 106 0.0 0.0 0.00 0.41 0.05 89 1014.6
20260904161731 13 106 0.0 0.0 0.00 0.41 0.05 92 1014.6
20260904161257 13 106 0.0 0.0 0.00 0.41 0.05 93 1014.6
20260904160731 12 106 0.0 0.0 0.00 0.41 0.05 93 1014.5
20260904160238 12 106 0.0 0.0 0.00 0.41 0.05 92 1014.5
20260904155725 12 106 0.0 0.0 0.00 0.41 0.05 92 1014.6
20260904155230 12 106 0.0 0.0 0.00 0.41 0.05 93 1014.6
20260904154735 12 106 0.0 0.0 0.00 0.41 0.05 91 1014.6
20260904154222 12 106 0.0 0.0 0.00 0.41 0.05 93 1014.6
20260904153729 12 106 0.0 0.0 0.00 0.41 0.05 93 1014.5
20260904153236 12 106 0.0 0.0 0.00 0.41 0.05 94 1014.4
20260904152723 12 106 0.0 0.0 0.00 0.41 0.05 94 1014.3
20260904152231 12 105 0.0 3.2 0.00 0.41 0.05 94 1014.3
20260904151721 12 111 1.6 3.2 0.00 0.41 0.05 95 1014.3
20260904151228 12 105 0.0 3.2 0.00 0.41 0.05 96 1014.1
20260904150735 12 144 0.0 3.2 0.00 0.41 0.05 96 1014.2
20260904150222 12 126 0.0 0.0 0.00 0.41 0.05 96 1014.1
20260904145729 12 200 0.0 0.0 0.00 0.41 0.05 96 1014.1
20260904145237 12 232 0.0 0.0 0.00 0.41 0.05 96 1014.0
20260904144803 11 232 0.0 0.0 0.00 0.41 0.05 96 1013.9
20260904144238 11 233 0.0 0.0 0.00 0.41 0.05 96 1013.9
20260904143725 11 233 0.0 0.0 0.00 0.41 0.05 96 1013.8
20260904143252 11 232 0.0 0.0 0.00 0.41 0.05 96 1013.8
20260904142807 10 233 0.0 0.0 0.03 0.41 0.05 96 1013.8
20260904142735 10 233 0.0 0.0 0.03 0.41 0.05 96 1013.8
20260904142223 10 233 0.0 0.0 0.03 0.41 0.05 96 1013.9
20260904141729 10 233 0.0 0.0 0.03 0.48 0.05 96 1013.8
20260904141256 10 233 0.0 0.0 0.03 0.48 0.05 96 1013.8
20260904141224 10 233 0.0 0.0 0.03 0.48 0.05 96 1013.8
20260904140811 10 232 0.0 0.0 0.03 0.48 0.05 95 1013.6
20260904140739 10 232 0.0 0.0 0.03 0.48 0.05 95 1013.6
20260904140230 10 232 0.0 0.0 0.03 0.48 0.05 95 1013.6
20260904135737 10 233 0.0 0.0 0.03 0.48 0.05 95 1013.5
20260904135225 10 232 0.0 0.0 0.03 0.48 0.05 95 1013.4
20260904134731 10 233 0.0 0.0 0.03 0.48 0.05 95 1013.4
20260904134238 10 232 0.0 0.0 0.03 0.48 0.05 96 1013.3
20260904133725 10 233 0.0 0.0 0.03 0.48 0.05 96 1013.3
20260904133232 10 232 0.0 0.0 0.03 0.48 0.05 96 1013.2
20260904132739 10 233 0.0 0.0 0.00 0.46 0.03 95 1013.1
20260904132307 10 233 0.0 0.0 0.00 0.46 0.03 95 1013.2
20260904132235 10 233 0.0 0.0 0.00 0.46 0.03 95 1013.2
20260904131721 10 233 0.0 0.0 0.00 0.51 0.03 95 1013.1
20260904131228 10 232 0.0 0.0 0.00 0.51 0.03 95 1013.1
20260904130739 10 232 0.0 0.0 0.00 0.51 0.03 95 1013.1
20260904130226 10 233 0.0 0.0 0.00 0.51 0.03 95 1013.1
20260904125753 10 232 0.0 0.0 0.00 0.51 0.03 95 1013.0
20260904125310 10 232 0.0 0.0 0.00 0.51 0.03 95 1013.0
20260904124724 10 233 0.0 0.0 0.00 0.51 0.03 95 1013.0
20260904124231 10 232 0.0 0.0 0.00 0.51 0.03 95 1013.0
20260904123758 10 232 0.0 0.0 0.00 0.51 0.03 95 1012.9
20260904123253 10 233 0.0 0.0 0.00 0.51 0.03 95 1013.0
20260904122728 10 233 0.0 0.0 0.00 0.51 0.03 95 1012.9
20260904122236 10 232 0.0 0.0 0.00 0.51 0.03 95 1012.8
20260904121724 10 232 0.0 0.0 0.00 0.53 0.03 95 1012.9
20260904121230 10 232 0.0 0.0 0.00 0.53 0.03 95 1012.7
20260904120737 10 232 0.0 0.0 0.00 0.53 0.03 95 1012.7
20260904120224 10 233 0.0 0.0 0.00 0.53 0.03 95 1012.6
20260904115736 10 232 0.0 0.0 0.00 0.53 0.03 95 1012.6
20260904115221 10 232 0.0 0.0 0.00 0.53 0.03 95 1012.6
20260904114727 10 232 0.0 0.0 0.00 0.53 0.03 95 1012.5
20260904114234 10 233 0.0 0.0 0.00 0.53 0.03 95 1012.4
20260904113721 11 233 0.0 0.0 0.00 0.53 0.03 95 1012.4
20260904113308 11 232 0.0 0.0 0.00 0.53 0.03 95 1012.3
20260904113236 11 232 0.0 0.0 0.00 0.53 0.03 95 1012.3
20260904112723 11 232 0.0 0.0 0.00 0.53 0.03 95 1012.3
20260904112231 11 233 0.0 0.0 0.03 0.53 0.03 95 1012.2
20260904111737 11 233 0.0 0.0 0.03 0.56 0.03 95 1012.2
20260904111224 11 233 0.0 0.0 0.03 0.56 0.03 95 1012.4
20260904110752 11 232 0.0 0.0 0.03 0.56 0.03 95 1012.3
20260904110227 11 233 0.0 0.0 0.03 0.56 0.03 95 1012.3
20260904105738 11 233 0.0 0.0 0.03 0.56 0.03 95 1012.2
20260904105225 11 233 0.0 0.0 0.03 0.56 0.03 95 1012.3
20260904104731 11 232 0.0 0.0 0.03 0.56 0.03 95 1012.3
20260904103725 11 232 0.0 0.0 0.03 0.56 0.03 95 1012.2
20260904103232 11 232 0.0 0.0 0.03 0.56 0.03 95 1012.1
20260904102758 11 232 0.0 0.0 0.03 0.56 0.03 95 1012.1
20260904102726 11 232 0.0 0.0 0.03 0.56 0.03 95 1012.1
20260904102254 11 233 0.0 0.0 0.00 0.53 0.00 95 1012.1
20260904101808 11 233 0.0 0.0 0.00 0.53 0.00 95 1012.1
20260904101224 11 233 0.0 0.0 0.00 0.53 0.00 95 1012.2
20260904100730 11 232 0.0 0.0 0.00 0.53 0.00 95 1012.1
20260904100232 11 233 0.0 0.0 0.00 0.53 0.00 95 1012.0
20260904095759 11 232 0.0 0.0 0.00 0.53 0.00 95 1011.9
20260904095235 11 233 0.0 0.0 0.00 0.53 0.00 95 1012.0
20260904094725 11 233 0.0 0.0 0.00 0.53 0.00 95 1012.0
20260904094232 11 233 0.0 0.0 0.00 0.53 0.00 95 1012.0
20260904093739 11 233 0.0 0.0 0.00 0.53 0.00 95 1012.0
20260904093226 11 232 0.0 0.0 0.00 0.53 0.00 95 1012.0
20260904092813 11 232 0.0 0.0 0.00 0.53 0.00 95 1012.0
20260904092306 11 233 0.0 0.0 0.00 0.53 0.00 95 1012.1
20260904092233 11 233 0.0 0.0 0.00 0.53 0.00 95 1012.1
20260904091740 11 233 0.0 0.0 0.00 0.53 0.00 95 1012.0
20260904091226 11 232 0.0 0.0 0.00 0.53 0.00 95 1012.0
20260904090733 11 232 0.0 0.0 0.00 0.53 0.00 95 1012.1
20260904090220 11 232 0.0 0.0 0.03 0.53 0.00 95 1012.0
20260904085727 11 233 0.0 0.0 0.03 0.53 0.00 95 1012.1
20260904085235 11 232 0.0 3.2 0.03 0.53 0.00 95 1012.0
20260904084725 11 163 0.0 3.2 0.03 0.53 0.00 95 1012.1
20260904084232 11 163 0.0 3.2 0.03 0.53 0.00 95 1012.1
20260904083734 11 163 1.6 3.2 0.03 0.53 0.00 95 1012.1
20260904083221 11 163 0.0 0.0 0.03 0.53 0.00 95 1012.2
20260904082736 11 163 0.0 1.6 0.03 0.53 0.00 95 1012.2
20260904082225 11 163 0.0 1.6 0.03 0.53 0.00 95 1012.2
20260904081810 11 163 1.6 1.6 0.03 0.56 0.53 95 1012.1
20260904081739 11 163 1.6 1.6 0.03 0.56 0.53 95 1012.1
20260904081306 11 163 1.6 3.2 0.03 0.56 0.53 95 1011.9
20260904081234 11 163 1.6 3.2 0.03 0.56 0.53 95 1011.9
20260904080720 11 259 0.0 3.2 0.00 0.53 0.51 95 1011.9
20260904080308 11 260 1.6 3.2 0.00 0.53 0.51 95 1011.7
20260904075724 11 90 1.6 3.2 0.00 0.53 0.51 95 1011.8
20260904075232 11 90 0.0 0.0 0.00 0.53 0.51 95 1012.1
20260904074738 11 90 0.0 0.0 0.00 0.53 0.51 95 1012.0
20260904074224 11 90 0.0 0.0 0.00 0.53 0.51 95 1012.1
20260904073731 11 90 0.0 0.0 0.00 0.53 0.51 95 1012.1
20260904073258 11 90 0.0 0.0 0.00 0.53 0.51 94 1012.1
20260904073226 11 90 0.0 0.0 0.00 0.53 0.51 94 1012.1
20260904072753 11 90 0.0 0.0 0.00 0.53 0.51 95 1012.2
20260904072233 11 90 0.0 0.0 0.00 0.53 0.51 95 1012.3
20260904071739 11 90 0.0 0.0 0.03 0.53 0.51 95 1012.3
20260904071226 12 90 0.0 0.0 0.03 0.53 0.51 94 1012.3
20260904070721 12 90 0.0 0.0 0.03 0.53 0.51 95 1012.3
20260904070228 12 90 0.0 0.0 0.03 0.53 0.51 95 1012.3
20260904065735 12 90 0.0 0.0 0.03 0.53 0.51 95 1012.2
20260904065306 12 90 0.0 0.0 0.03 0.53 0.51 94 1012.3
20260904064738 12 90 0.0 0.0 0.03 0.53 0.51 94 1012.2
20260904064225 12 90 0.0 0.0 0.03 0.53 0.51 95 1012.3
20260904063727 12 90 0.0 0.0 0.03 0.53 0.51 95 1012.3
20260904063234 12 90 0.0 0.0 0.03 0.53 0.51 94 1012.2
20260904062802 12 90 0.0 0.0 0.03 0.53 0.51 94 1012.2
20260904062730 12 90 0.0 0.0 0.03 0.53 0.51 94 1012.2
20260904062238 12 90 0.0 0.0 0.03 0.53 0.51 95 1012.2
20260904061728 12 90 0.0 0.0 0.00 0.51 0.48 95 1012.2
20260904061235 12 102 0.0 0.0 0.00 0.51 0.48 95 1012.2
20260904060723 12 69 0.0 0.0 0.00 0.51 0.48 95 1012.2
20260904060310 12 69 0.0 0.0 0.00 0.51 0.48 94 1012.2
20260904060238 12 69 0.0 0.0 0.00 0.51 0.48 94 1012.2
20260904055725 12 69 0.0 0.0 0.00 0.51 0.48 94 1012.1
20260904055234 12 69 0.0 0.0 0.00 0.51 0.48 94 1012.1
20260904054800 12 69 0.0 0.0 0.03 0.51 0.48 94 1012.0
20260904054257 12 69 0.0 0.0 0.03 0.51 0.48 94 1012.0
20260904053752 12 69 0.0 0.0 0.03 0.51 0.48 94 1012.0
20260904053720 12 69 0.0 0.0 0.03 0.51 0.48 94 1012.0
20260904053307 12 69 0.0 0.0 0.03 0.51 0.48 94 1012.1
20260904053235 12 69 0.0 0.0 0.03 0.51 0.48 94 1012.1
20260904052803 12 69 0.0 0.0 0.03 0.51 0.48 94 1012.0
20260904052240 12 69 0.0 0.0 0.03 0.51 0.48 94 1012.0
20260904051725 12 69 0.0 0.0 0.03 0.51 0.48 94 1011.9
20260904051232 12 69 0.0 0.0 0.03 0.51 0.48 94 1012.0
20260904050759 12 69 0.0 0.0 0.03 0.51 0.48 94 1011.9
20260904050727 12 69 0.0 0.0 0.03 0.51 0.48 94 1011.9
20260904050234 12 69 0.0 0.0 0.03 0.51 0.48 94 1012.0
20260904045802 12 69 0.0 0.0 0.03 0.51 0.48 94 1012.1
20260904045238 12 69 0.0 0.0 0.03 0.51 0.48 94 1012.1
20260904044724 12 69 0.0 0.0 0.00 0.48 0.46 94 1012.1
20260904044235 12 69 0.0 0.0 0.03 0.48 0.46 94 1012.1
20260904043722 12 69 0.0 0.0 0.03 0.48 0.46 94 1012.0
20260904043229 12 69 0.0 0.0 0.03 0.48 0.46 94 1012.1
20260904042736 12 69 0.0 0.0 0.03 0.48 0.46 94 1012.1
20260904042225 12 69 0.0 0.0 0.03 0.48 0.46 94 1012.1
20260904041730 12 69 0.0 0.0 0.03 0.48 0.46 94 1012.1
20260904041257 12 69 0.0 0.0 0.03 0.48 0.46 94 1012.0
20260904040732 12 69 0.0 0.0 0.03 0.48 0.46 94 1011.9
20260904040300 12 69 0.0 0.0 0.05 0.48 0.46 94 1011.8
20260904035735 12 69 0.0 0.0 0.05 0.48 0.46 94 1011.7
20260904035223 12 69 0.0 0.0 0.05 0.48 0.46 94 1011.7
20260904034729 12 69 0.0 0.0 0.05 0.48 0.46 93 1011.7
20260904034220 12 69 0.0 0.0 0.03 0.46 0.43 93 1011.7
20260904033727 12 69 0.0 0.0 0.03 0.46 0.43 93 1011.6
20260904033233 12 69 0.0 0.0 0.03 0.46 0.43 93 1011.7
20260904032720 12 69 0.0 3.2 0.05 0.46 0.43 93 1011.6
20260904032309 12 69 0.0 3.2 0.05 0.46 0.43 93 1011.5
20260904031723 12 69 0.0 1.6 0.05 0.46 0.43 93 1011.5
20260904031230 12 69 0.0 3.2 0.05 0.46 0.43 93 1011.5
20260904030737 12 69 1.6 3.2 0.05 0.46 0.43 94 1011.6
20260904030224 12 130 0.0 1.6 0.05 0.43 0.41 94 1011.5
20260904025731 12 244 0.0 0.0 0.05 0.43 0.41 93 1011.3
20260904025223 12 243 0.0 0.0 0.05 0.43 0.41 93 1011.4
20260904024729 12 243 0.0 0.0 0.05 0.43 0.41 93 1011.3
20260904024236 12 243 0.0 0.0 0.08 0.43 0.41 93 1011.4
20260904023803 12 243 0.0 0.0 0.08 0.43 0.41 93 1011.4
20260904023238 12 243 0.0 0.0 0.08 0.43 0.41 93 1011.5
20260904022725 12 243 0.0 1.6 0.08 0.41 0.38 92 1011.4
20260904022234 12 244 0.0 1.6 0.08 0.41 0.38 92 1011.3
20260904021739 12 242 0.0 1.6 0.08 0.41 0.38 92 1011.2
20260904021306 12 243 0.0 1.6 0.10 0.41 0.38 92 1011.3
20260904021234 12 243 0.0 1.6 0.10 0.41 0.38 92 1011.3
20260904020721 13 242 0.0 3.2 0.08 0.38 0.36 92 1011.3
20260904020228 13 243 0.0 3.2 0.08 0.38 0.36 92 1011.3
20260904015810 13 243 0.0 3.2 0.08 0.38 0.36 92 1011.3
20260904015226 13 240 0.0 0.0 0.10 0.38 0.36 92 1011.3
20260904014753 13 199 0.0 0.0 0.08 0.36 0.36 92 1011.3
20260904014228 13 230 0.0 0.0 0.08 0.36 0.33 92 1011.3
20260904013755 13 242 0.0 0.0 0.08 0.36 0.33 92 1011.4
20260904013723 13 242 0.0 0.0 0.08 0.36 0.33 92 1011.4
20260904013310 13 242 0.0 0.0 0.08 0.36 0.33 92 1011.5
20260904013238 13 242 0.0 0.0 0.08 0.36 0.33 92 1011.5
20260904012805 13 248 0.0 0.0 0.05 0.33 0.30 92 1011.6
20260904012306 13 248 0.0 0.0 0.05 0.33 0.30 91 1011.7
20260904012231 13 248 0.0 0.0 0.05 0.33 0.30 91 1011.7
20260904011720 13 192 0.0 0.0 0.05 0.48 0.30 91 1011.5
20260904011227 13 192 0.0 0.0 0.03 0.46 0.28 89 1011.6
20260904010734 13 192 0.0 1.6 0.03 0.46 0.28 88 1011.6
20260904010220 13 192 1.6 3.2 0.03 0.46 0.28 85 1011.6
20260904005727 14 248 0.0 3.2 0.00 0.43 0.25 84 1011.4
20260904005255 15 248 0.0 9.7 0.00 0.43 0.25 81 1011.4
20260904005223 15 248 0.0 9.7 0.00 0.43 0.25 81 1011.4
20260904004729 16 296 1.6 9.7 0.00 0.43 0.25 76 1011.3
20260904004236 17 251 4.8 9.7 0.00 0.43 0.25 73 1011.3
20260904003723 17 240 1.6 3.2 0.00 0.43 0.25 72 1011.1
20260904003230 17 70 0.0 3.2 0.00 0.43 0.25 68 1010.9
20260904002737 17 54 0.0 4.8 0.00 0.43 0.25 68 1010.7
20260904002229 17 48 0.0 8.0 0.00 0.43 0.25 68 1010.6
20260904001735 17 39 3.2 8.0 0.00 0.43 0.25 68 1010.6
20260904001302 17 81 3.2 8.0 0.00 0.43 0.25 67 1010.7
20260904000736 17 83 4.8 8.0 0.00 0.43 0.25 68 1010.9
20260904000303 17 58 1.6 8.0 0.00 0.43 0.25 68 1010.9
20260903235739 17 58 0.0 8.0 0.00 0.43 0.25 67 1010.8
20260903235227 18 88 1.6 6.4 0.00 0.43 0.25 67 1010.8
20260903234733 18 53 1.6 8.0 0.00 0.43 0.25 66 1010.8
20260903234220 18 109 4.8 8.0 0.00 0.43 0.25 65 1010.8
20260903233808 18 86 1.6 3.2 0.00 0.43 0.25 65 1010.9
20260903233223 18 59 1.6 6.4 0.00 0.43 0.25 67 1011.0
20260903232810 18 348 1.6 3.2 0.00 0.43 0.25 65 1010.9
20260903232738 18 348 1.6 3.2 0.00 0.43 0.25 65 1010.9
20260903232306 18 83 0.0 4.8 0.00 0.43 0.25 67 1010.9
20260903231800 18 65 1.6 8.0 0.00 0.66 0.25 68 1010.8
20260903231255 18 81 1.6 12.9 0.00 0.66 0.25 66 1010.7
20260903231224 18 81 1.6 12.9 0.00 0.66 0.25 66 1010.7
20260903230729 18 348 1.6 12.9 0.00 0.66 0.25 67 1010.7
20260903230256 18 78 4.8 9.7 0.03 0.66 0.25 67 1010.8
20260903230224 18 78 4.8 9.7 0.03 0.66 0.25 67 1010.8
20260903225731 18 84 1.6 9.7 0.03 0.66 0.25 68 1010.9
20260903225239 18 86 6.4 9.7 0.03 0.66 0.25 68 1010.8
20260903224729 18 34 4.8 8.0 0.03 0.66 0.25 69 1010.8
20260903224236 18 121 3.2 6.4 0.03 0.66 0.25 69 1010.8
20260903223724 17 38 1.6 6.4 0.05 0.66 0.25 69 1010.9
20260903223230 17 79 3.2 6.4 0.05 0.66 0.25 70 1011.0
20260903222737 17 35 1.6 4.8 0.08 0.66 0.25 75 1011.0
20260903222225 17 345 0.0 3.2 0.08 0.66 0.25 77 1011.0
20260903221731 17 340 0.0 3.2 0.08 0.84 0.25 76 1011.0
20260903221238 16 49 0.0 3.2 0.08 0.84 0.25 77 1010.9
20260903220806 16 31 1.6 3.2 0.08 0.84 0.25 75 1011.0
20260903220302 16 324 0.0 1.6 0.05 0.81 0.23 78 1011.0
20260903215757 16 71 0.0 0.0 0.05 0.81 0.23 78 1011.2
20260903215231 16 71 0.0 0.0 0.05 0.81 0.23 80 1011.2
20260903214735 16 71 0.0 0.0 0.05 0.81 0.23 81 1011.1
20260903214224 16 71 0.0 0.0 0.05 0.81 0.23 81 1011.1
20260903213805 16 72 0.0 3.2 0.03 0.79 0.20 78 1011.2
20260903213257 17 72 0.0 3.2 0.03 0.79 0.20 77 1011.3
20260903212734 17 67 0.0 3.2 0.00 0.76 0.18 70 1011.2
20260903212239 17 40 0.0 4.8 0.00 0.76 0.18 68 1011.3
20260903211803 17 289 0.0 6.4 0.00 0.84 0.18 67 1011.1
20260903211731 17 289 0.0 6.4 0.00 0.84 0.18 67 1011.1
20260903211231 17 317 1.6 6.4 0.00 0.84 0.18 69 1011.1
20260903210736 17 281 0.0 4.8 0.00 0.84 0.18 68 1011.2
20260903210241 17 90 3.2 9.7 0.00 0.84 0.18 67 1011.2
20260903205726 17 294 3.2 9.7 0.00 0.84 0.18 67 1011.2
20260903205231 17 19 1.6 3.2 0.00 0.84 0.18 65 1011.1
20260903204735 17 275 1.6 3.2 0.00 0.84 0.18 66 1011.1
20260903204240 17 114 0.0 6.4 0.00 0.84 0.18 65 1011.0
20260903203804 17 298 3.2 6.4 0.00 0.84 0.18 63 1010.9
20260903203238 18 315 3.2 8.0 0.00 0.84 0.18 63 1011.0
20260903202803 18 246 3.2 8.0 0.00 0.84 0.18 61 1010.8
20260903202731 18 246 3.2 8.0 0.00 0.84 0.18 61 1010.8
20260903202237 18 36 1.6 8.0 0.00 0.84 0.18 62 1010.7
20260903201724 18 348 3.2 6.4 0.00 0.94 0.18 64 1010.7
20260903201228 18 304 1.6 4.8 0.00 0.94 0.18 63 1010.7
20260903200733 17 27 0.0 6.4 0.00 0.94 0.18 65 1010.8
20260903200237 17 355 1.6 6.4 0.00 0.94 0.18 65 1010.8